Houghton, MI

4:13 PM EDT on June 19, 2018 (GMT -0400)
Houghton County Memorial

Weather History for KCMX - September, 2017

Change the Weather History Date:

Thursday, September 14, 2017

  Actual Average Record
Temperature  
Mean Temperature 68 °F -  
Max Temperature 79 °F 62 °F 80 °F (1968)
Min Temperature 59 °F 46 °F 30 °F (1953)
Cooling Degree Days 4    
Growing Degree Days 18 (Base 50)    
Moisture  
Dew Point 60 °F    
Average Humidity 77    
Maximum Humidity 93    
Minimum Humidity 60    
Precipitation  
Precipitation 0.00 in - - ()
Sea Level Pressure  
Sea Level Pressure 29.75 in    
Wind  
Wind Speed 4 mph (ESE)    
Max Wind Speed 10 mph    
Max Gust Speed -    
Visibility 10 miles    
Events      
Averages and records for this station are not official NWS values.
T = Trace of Precipitation, MM = Missing Value Source: NWS Daily Summary

Daily Weather History Graph

Daily Weather History Graph

Search for Another Location

Airport or City:

Astronomy

Sep. 14, 2017 Rise Set
Actual Time 7:30 AM EDT 8:07 PM EDT
Civil Twilight 6:59 AM EDT 8:38 PM EDT
Nautical Twilight 6:23 AM EDT 9:14 PM EDT
Astronomical Twilight 5:45 AM EDT 9:52 PM EDT
Moon 1:09 AM EDT (9/14) 4:41 PM EDT (9/14)
Length of Visible Light 13h 38m
Length of Day
12h 36m
Waning Crescent, 34% of the Moon is Illuminated
Sep 14
Waning Crescent
Sep 20
New
Sep 27
First Quarter
Oct 5
Full
Oct 12
Last Quarter

Hourly Weather History & Observations

Time (EDT) Temp. Dew Point Humidity Pressure Visibility Wind Dir Wind Speed Gust Speed Precip Events Conditions
12:53 AM 64.0 °F 57.9 °F 80% 29.72 in 10.0 mi East 5.8 mph - N/A   Clear
1:53 AM 63.0 °F 57.9 °F 84% 29.72 in 10.0 mi Variable 4.6 mph - N/A   Scattered Clouds
2:53 AM 63.0 °F 57.9 °F 84% 29.72 in 10.0 mi South 3.5 mph - N/A   Partly Cloudy
3:53 AM 63.0 °F 59.0 °F 87% 29.72 in 10.0 mi Calm Calm - N/A   Clear
4:53 AM 61.0 °F 57.9 °F 90% 29.73 in 9.0 mi Calm Calm - N/A   Clear
5:53 AM 64.0 °F 59.0 °F 84% 29.73 in 10.0 mi WNW 3.5 mph - N/A   Clear
6:53 AM 61.0 °F 57.9 °F 90% 29.74 in 10.0 mi Calm Calm - N/A   Clear
7:53 AM 59.0 °F 57.0 °F 93% 29.74 in 5.0 mi Calm Calm - N/A   Clear
8:53 AM 62.1 °F 59.0 °F 90% 29.76 in 7.0 mi Calm Calm - N/A   Clear
9:53 AM 64.9 °F 59.0 °F 81% 29.77 in 10.0 mi South 3.5 mph - N/A   Clear
10:53 AM 69.1 °F 61.0 °F 75% 29.77 in 10.0 mi SSE 3.5 mph - N/A   Clear
11:53 AM 71.1 °F 61.0 °F 70% 29.75 in 10.0 mi SSE 4.6 mph - N/A   Clear
12:53 PM 75.0 °F 62.1 °F 64% 29.75 in 10.0 mi SE 5.8 mph - N/A   Clear
1:53 PM 78.1 °F 63.0 °F 60% 29.75 in 10.0 mi East 9.2 mph - N/A   Clear
2:53 PM 78.1 °F 63.0 °F 60% 29.75 in 10.0 mi ESE 10.4 mph - N/A   Clear
3:53 PM 75.0 °F 61.0 °F 62% 29.75 in 10.0 mi East 9.2 mph - N/A   Clear
4:53 PM 75.0 °F 61.0 °F 62% 29.75 in 10.0 mi East 5.8 mph - N/A   Partly Cloudy
5:53 PM 75.9 °F 61.0 °F 60% 29.74 in 10.0 mi NNE 4.6 mph - N/A   Partly Cloudy
6:53 PM 73.9 °F 63.0 °F 68% 29.75 in 10.0 mi ENE 4.6 mph - N/A   Mostly Cloudy
7:53 PM 71.1 °F 62.1 °F 73% 29.76 in 10.0 mi East 3.5 mph - N/A   Clear
8:53 PM 68.0 °F 61.0 °F 78% 29.78 in 10.0 mi SE 3.5 mph - N/A   Clear
9:53 PM 66.9 °F 62.1 °F 84% 29.78 in 10.0 mi ESE 5.8 mph - N/A   Clear
10:53 PM 69.1 °F 61.0 °F 75% 29.78 in 10.0 mi SW 3.5 mph - N/A   Clear
11:53 PM 59.0 °F 57.0 °F 93% 29.83 in 6.0 mi NNW 9.2 mph - N/A   Partly Cloudy